Cloud_Cover
3 0 4 68 100 84 6 9 84 99 0 2 61 100 85 5 1 0 0 5 0 0 4 0 0 0 15 46 99 70 100 92 48 28 100 53 45 58 100 71 100 91 100 55
0 0 2 25 1 1 5 11 42 100 35 5 28 81 100 100 96 22 0 1 4 2 5 0 0 0 0 8 71 3 82 99 50 96 100 92 100 82 67 49 81 7 41 24
0 0 0 0 0 0 0 4 50 87 24 19 72 73 100 80 100 100 4 0 0 1 5 4 1 0 0 1 5 4 10 5 86 65 23 79 54 89 100 52 17 5 52 18
0 0 0 0 0 0 0 0 4 5 51 100 4 84 100 100 100 100 97 3 0 0 0 4 4 0 0 0 0 5 5 44 48 7 78 24 48 70 17 74 51 5 58 94
0 0 0 0 0 0 0 0 0 4 4 91 36 27 100 100 44 57 100 89 2 0 0 0 0 0 0 0 0 0 0 0 0 0 0 1 0 99 42 74 100 100 100 69
0 0 0 0 0 0 0 0 0 0 0 4 48 78 94 96 79 80 100 100 79 4 0 0 3 0 0 0 0 0 0 0 0 0 1 2 4 0 100 100 85 27 29 6
0 0 0 0 0 0 0 0 1 23 4 0 73 36 41 88 0 7 7 84 100 11 4 1 0 2 3 1 0 0 0 0 0 0 43 5 5 0 0 41 24 92 87 54
1 38 0 0 0 4 0 0 14 100 100 100 100 100 100 0 0 0 0 0 100 100 10 5 0 1 3 26 1 0 0 0 0 4 1 17 5 5 4 0 34 17 94 89
5 8 0 0 0 0 0 3 20 0 0 4 30 10 16 20 0 0 0 0 1 100 100 40 5 2 5 5 5 1 0 2 0 2 0 0 2 0 0 0 0 25 8 98
4 2 8 0 0 0 0 0 0 1 27 54 62 100 100 64 0 0 0 0 0 0 90 100 22 5 0 5 5 5 3 5 5 0 5 2 0 5 5 0 0 0 2 10
0 1 5 2 8 1 0 0 2 2 2 12 84 100 7 7 0 0 0 0 0 0 0 66 86 5 5 0 1 5 3 5 14 5 5 8 4 5 5 0 0 0 0 0
4 0 0 0 1 0 0 0 0 0 5 97 100 100 0 3 0 0 0 0 0 33 16 32 98 41 15 4 2 4 6 0 5 48 42 8 5 1 0 3 0 5 0 0
0 0 0 1 26 2 0 0 0 0 0 0 15 98 9 3 0 0 0 0 0 48 88 67 100 100 78 11 2 14 7 4 0 4 11 50 21 5 24 5 59 15 5 5
0 0 0 0 2 7 0 0 0 0 0 2 73 100 3 38 1 0 0 0 0 0 0 15 100 100 100 81 3 0 5 5 5 2 1 3 5 61 3 2 17 8 5 3
0 0 0 0 0 0 0 0 0 0 0 0 0 2 5 22 0 0 0 0 0 0 2 92 100 85 36 100 4 0 2 5 18 93 1 0 15 18 48 49 8 2 5 21
0 0 0 0 0 0 0 0 0 0 0 0 0 0 0 0 0 0 0 0 0 0 5 64 88 99 100 24 4 31 85 64 100 100 83 30 79 17 8 5 3 5 5 5
0 0 0 0 0 0 0 0 0 0 0 0 0 0 0 0 0 0 0 0 0 0 0 0 0 71 83 97 12 2 88 100 100 100 100 100 100 100 85 97 28 6 25 5
0 0 0 0 0 0 0 0 0 0 0 0 1 0 0 0 2 5 5 0 0 0 0 0 0 0 0 0 0 0 0 76 100 100 100 100 100 100 100 100 52 80 42 74
0 0 0 0 1 4 4 0 6 5 0 3 1 0 2 4 5 3 0 0 0 0 0 0 0 0 0 0 0 0 0 91 100 100 100 100 100 100 100 100 100 100 100 98
0 0 0 5 5 5 5 2 5 16 5 50 13 85 100 100 24 68 25 0 4 0 0 0 0 0 0 0 0 0 0 37 9 100 100 100 100 100 100 62 12 19 95 20
5 5 7 5 5 5 35 3 5 2 18 13 100 100 100 100 100 100 99 11 5 13 6 2 0 9 5 0 0 0 0 2 9 42 100 100 100 100 95 5 10 0 0 5
78 91 6 28 16 22 65 3 5 5 5 5 12 24 97 100 100 100 100 100 6 21 72 80 20 36 84 0 0 0 0 0 4 10 13 100 100 100 97 19 100 100 5 0
73 26 6 100 9 28 99 88 5 5 5 5 5 5 5 18 40 90 100 100 100 97 80 29 76 98 100 86 0 0 0 0 0 66 49 77 100 100 73 61 100 99 5 0
5 5 7 100 89 22 30 10 5 11 19 5 10 6 25 80 90 100 100 100 100 100 100 100 99 100 100 98 41 4 0 0 0 0 54 90 100 95 99 100 99 4 0 0
2 7 5 33 8 5 5 3 5 5 47 100 99 100 100 100 95 100 100 100 100 100 100 100 100 100 100 100 100 100 1 0 0 0 0 1 11 9 15 33 5 0 0 0
2 5 6 8 5 5 5 5 12 31 29 81 100 91 95 86 24 8 6 96 100 100 99 84 100 100 100 81 48 100 97 3 0 0 0 0 0 0 3 25 5 0 0 94